Weather History for Coolangatta Airport Aws, Queensland

Change the Weather History Date:

Tuesday, July 16, 2013

  Actual Average Record
Temperature  
Mean Temperature 61 °F -  
Max Temperature 69 °F - - ()
Min Temperature 53 °F - - ()
Degree Days  
Heating Degree Days 4    
Growing Degree Days 11 (Base 50)    
Moisture  
Dew Point 57 °F    
Average Humidity 85    
Maximum Humidity 100    
Minimum Humidity 52    
Precipitation  
Precipitation 0.08 in - - ()
Sea Level Pressure  
Sea Level Pressure 30.29 in    
Wind  
Wind Speed 5 mph ()    
Max Wind Speed 16 mph    
Max Gust Speed -    
Visibility 5.9 miles    
Events      
T = Trace of Precipitation, MM = Missing Value Source: Averaged Metar Reports

Daily Weather History Graph

Daily Weather History Graph

Search for Another Location

Airport:

Trip Planner

Search our weather history database for the weather conditions in past years. The results will help you decide how hot, cold, wet, or windy it might be!

Date:

Astronomy

Jul. 16, 2013 Rise Set
Actual Time 6:36 AM AEST 5:07 PM AEST
Civil Twilight 6:10 AM AEST 5:33 PM AEST
Nautical Twilight 5:42 AM AEST 6:02 PM AEST
Astronomical Twilight 5:13 AM AEST 6:30 PM AEST
Moon 11:08 AM AEST (7/16) No Moon Set
Length of Visible Light 11h 22m
Length of Day
10h 31m
Waxing Crescent, 49% of the Moon is Illuminated
Jul 16
Waxing Crescent
Jul 16
First Quarter
Jul 23
Full
Jul 30
Last Quarter
Aug 7
New

Hourly Weather History & Observations

Time (AEST) Temp. Dew Point Humidity Pressure Visibility Wind Dir Wind Speed Gust Speed Precip Events Conditions
12:00 AM 60 °F 57 °F 86% 30.30 in - SW 5.8 mph - -   Overcast
12:00 AM 59.0 °F 57.2 °F 94% 30.30 in 6.2 mi SW 5.8 mph - N/A   Overcast
12:30 AM 59.0 °F 57.2 °F 94% 30.27 in 6.2 mi SW 5.8 mph - N/A   Overcast
1:00 AM 59.0 °F 57.2 °F 94% 30.27 in 6.2 mi SW 4.6 mph - N/A   Overcast
1:30 AM 59.0 °F 57.2 °F 94% 30.27 in 6.2 mi South 3.5 mph - N/A   Overcast
2:00 AM 59.0 °F 55.4 °F 88% 30.27 in 6.2 mi South 3.5 mph - N/A   Overcast
2:30 AM 59.0 °F 55.4 °F 88% 30.27 in 6.2 mi SSW 1.2 mph - N/A   Mostly Cloudy
3:00 AM 58 °F 55 °F 88% 30.28 in - SW 6.7 mph - -  
3:00 AM 57.2 °F 55.4 °F 94% 30.27 in 6.2 mi SW 3.5 mph - N/A   Overcast
3:30 AM 57.2 °F 55.4 °F 94% 30.27 in 6.2 mi South 4.6 mph - N/A   Scattered Clouds
4:00 AM 57.2 °F 55.4 °F 94% 30.27 in 6.2 mi SW 3.5 mph - N/A   Unknown
4:30 AM 55.4 °F 53.6 °F 94% 30.27 in 6.2 mi SW 4.6 mph - N/A   Unknown
5:00 AM 55.4 °F 53.6 °F 94% 30.27 in 6.2 mi SW 3.5 mph - N/A   Scattered Clouds
5:30 AM 55.4 °F 53.6 °F 94% 30.27 in 6.2 mi SW 3.5 mph - N/A   Unknown
6:00 AM 54 °F 53 °F 93% 30.30 in - SW 2.3 mph - -  
6:00 AM 53.6 °F 51.8 °F 94% 30.27 in 6.2 mi SSW 2.3 mph - N/A   Unknown
6:30 AM 53.6 °F 51.8 °F 94% 30.30 in 6.2 mi SSW 3.5 mph - N/A   Unknown
7:00 AM 53.6 °F 53.6 °F 100% 30.30 in 6.2 mi SW 3.5 mph - N/A   Unknown
7:30 AM 55.4 °F 53.6 °F 94% 30.30 in 6.2 mi SSW 3.5 mph - N/A   Unknown
8:00 AM 57.2 °F 55.4 °F 94% 30.30 in 6.2 mi SW 3.5 mph - N/A   Unknown
8:30 AM 60.8 °F 57.2 °F 88% 30.30 in 6.2 mi SSW 3.5 mph - N/A   Unknown
9:00 AM 64 °F 58 °F 76% 30.33 in - SW 4.6 mph - -  
9:00 AM 64.4 °F 59.0 °F 83% 30.33 in 6.2 mi SW 4.6 mph - N/A   Scattered Clouds
9:30 AM 66.2 °F 57.2 °F 73% 30.33 in 6.2 mi SSE 3.5 mph - N/A   Scattered Clouds
10:00 AM 66.2 °F 57.2 °F 73% 30.33 in 6.2 mi ENE 5.8 mph - N/A   Overcast
10:30 AM 68.0 °F 57.2 °F 68% 30.33 in 6.2 mi East 3.5 mph - N/A   Overcast
11:00 AM 69.8 °F 57.2 °F 64% 30.30 in 6.2 mi ENE 6.9 mph - N/A   Mostly Cloudy
11:30 AM 69.8 °F 57.2 °F 64% 30.30 in 6.2 mi NE 6.9 mph - N/A   Scattered Clouds
12:00 PM 69 °F 55 °F 52% 30.30 in - ENE 15.7 mph - -  
12:00 PM 68.0 °F 55.4 °F 64% 30.30 in 6.2 mi ENE 8.1 mph - N/A   Scattered Clouds
12:30 PM 68.0 °F 57.2 °F 68% 30.27 in 6.2 mi NE 6.9 mph - N/A   Scattered Clouds
1:00 PM 69.8 °F 57.2 °F 64% 30.27 in 6.2 mi NE 4.6 mph - N/A   Scattered Clouds
1:30 PM 69.8 °F 59.0 °F 68% 30.27 in 6.2 mi East 11.5 mph - N/A   Scattered Clouds
2:00 PM 68.0 °F 55.4 °F 64% 30.24 in 6.2 mi ENE 6.9 mph - N/A   Scattered Clouds
2:30 PM 64.4 °F 59.0 °F 83% 30.27 in 3.1 mi North 13.8 mph - N/A   Mostly Cloudy
2:51 PM 64.4 °F 59.0 °F 83% 30.24 in 6.2 mi WNW 4.6 mph - N/A   Overcast
3:00 PM 65 °F 60 °F 79% 30.27 in - WNW 3.5 mph - -   Overcast
3:00 PM 64.4 °F 60.8 °F 88% 30.24 in 6.2 mi WNW 3.5 mph - N/A   Overcast
3:30 PM 66.2 °F 60.8 °F 83% 30.24 in 6.2 mi Calm Calm - N/A   Scattered Clouds
4:00 PM 66.2 °F 59.0 °F 78% 30.27 in 6.2 mi NNW 3.5 mph - N/A   Unknown
4:30 PM 64.4 °F 60.8 °F 88% 30.27 in 6.2 mi Calm Calm - N/A   Mostly Cloudy
5:00 PM 66.2 °F 57.2 °F 73% 30.27 in 6.2 mi NE 10.4 mph - N/A   Mostly Cloudy
5:30 PM 66.2 °F 57.2 °F 73% 30.27 in 6.2 mi NNE 8.1 mph - N/A   Scattered Clouds
6:00 PM 66 °F 58 °F 67% 30.28 in - North 9.2 mph - -   Overcast
6:00 PM 66.2 °F 57.2 °F 73% 30.27 in 6.2 mi North 9.2 mph - N/A   Overcast
6:30 PM 62.6 °F 59.0 °F 88% 30.27 in 6.2 mi West 4.6 mph - N/A   Scattered Clouds
7:00 PM 60.8 °F 59.0 °F 94% 30.27 in 6.2 mi WSW 6.9 mph - N/A   Scattered Clouds
7:30 PM 60.8 °F 59.0 °F 94% 30.30 in 6.2 mi WSW 5.8 mph - N/A   Overcast
7:59 PM 62.6 °F 59.0 °F 88% 30.30 in 3.1 mi East 6.9 mph - N/A   Mostly Cloudy
8:00 PM 62.6 °F 59.0 °F 88% 30.30 in - East 5.8 mph - N/A   Mostly Cloudy
8:23 PM 62.6 °F 59.0 °F 88% 30.30 in 5.6 mi WSW 5.8 mph - N/A   Overcast
8:30 PM 60.8 °F 59.0 °F 94% 30.30 in 6.2 mi West 5.8 mph - N/A   Overcast
9:00 PM 60 °F 58 °F 92% 30.32 in - WSW 4.6 mph - -   Overcast
9:00 PM 60.8 °F 59.0 °F 94% 30.30 in 6.2 mi WSW 4.6 mph - N/A   Mostly Cloudy
9:30 PM 59.0 °F 57.2 °F 94% 30.30 in 6.2 mi SW 4.6 mph - N/A   Mostly Cloudy
10:00 PM 59.0 °F 57.2 °F 94% 30.30 in 6.2 mi SW 1.2 mph - N/A   Unknown
10:30 PM 59.0 °F 57.2 °F 94% 30.30 in 6.2 mi South 2.3 mph - N/A   Unknown
11:04 PM 57.2 °F 55.4 °F 94% 30.30 in 3.1 mi SSW 1.2 mph - N/A   Unknown
11:30 PM 57.2 °F 55.4 °F 94% 30.30 in 6.2 mi SSW 1.2 mph - N/A   Unknown
11:33 PM 57.2 °F 55.4 °F 94% 30.30 in 3.7 mi SSW 1.2 mph - N/A   Unknown
11:50 PM 57.2 °F 55.4 °F 94% 30.27 in 5.0 mi Calm Calm - N/A   Unknown